Home > Weather > Bingen am Rhein > Past weeks

Flag for Germany Weather for the Past 2 Weeks in Bingen am Rhein, Rhineland-Palatinate, Germany

Now
42 °F

Clear.


Feels Like: 42 °F
Forecast: 37 / 65 °F
Wind: No wind

Location: Wiesbaden Airport

Current Time: May 4, 2016 at 7:08:43 AM

Latest Report: May 4, 2016 at 5:58 AM


Visibility: N/A

Pressure: 30.37 "Hg

Humidity: 73%

Dew Point: 33 °F

Location of Bingen am RheinLocation

Historic Weather in Bingen am Rhein — Graph

°F

Bingen am Rhein Temperature Yesterday

Maximum temperature yesterday: 58 °F (at 5:58 PM)
Minimum temperature yesterday: 46 °F (at 2:58 AM)
Average temperature yesterday: 52 °F

High & Low Weather Summary for the Past Weeks

 TemperatureHumidityPressure
High68 °F (May 2, 4:58 PM)93% (Apr 25, 10:00 PM)30.46 "Hg (Apr 25, 10:00 PM)
Low31 °F (Apr 24, 6:58 AM)27% (Apr 20, 3:58 PM)29.58 "Hg (Apr 26, 1:03 AM)
Average48 °F64%30.04 "Hg
* Reported Apr 19 4:58 AM — May 4 4:58 AM, Bingen am Rhein, Weather by CustomWeather, © 2016

Note: Actual official high and low records may vary slightly from our data, if they occured in-between our weather recording intervals... More about our weather records

Advertising

Bingen am Rhein Weather History for the Previous 24 Hours

Scroll right to see more
 ConditionsComfort  
Time TempWeatherWind HumidityBarometerVisibility
4:58 AM
Wed, May 4
39 °FClear.No wind81%30.37 "HgN/A
3:58 AM43 °FClear.2 mph68%30.36 "HgN/A
2:58 AM43 °FClear.3 mph71%30.35 "HgN/A
1:58 AM41 °FClear.5 mph76%30.35 "HgN/A
12:58 AM45 °FClear.3 mph66%30.34 "HgN/A
11:58 PM
Tue, May 3
46 °FClear.3 mph62%30.33 "HgN/A
10:58 PM47 °FClear.5 mph59%30.31 "HgN/A
9:58 PM49 °FClear.5 mph55%30.29 "HgN/A
8:58 PM54 °FPassing clouds.8 mph44%30.25 "HgN/A
7:58 PM55 °FSunny.5 mph51%30.22 "HgN/A
6:58 PM57 °FScattered clouds.10 mph44%30.22 "HgN/A
5:58 PM58 °FScattered clouds.8 mph44%30.20 "HgN/A
4:58 PM56 °FBroken clouds.10 mph51%30.20 "HgN/A
3:58 PM55 °FScattered clouds.12 mph55%30.20 "HgN/A
2:58 PM57 °FScattered clouds.12 mph53%30.18 "HgN/A
1:58 PM54 °FScattered clouds.9 mph67%30.17 "HgN/A
12:58 PM54 °FPartly sunny.7 mph67%30.17 "HgN/A
11:58 AM51 °FPassing clouds.6 mph78%30.16 "HgN/A
10:58 AM52 °FSunny.9 mph79%30.14 "HgN/A
9:58 AM53 °FDrizzle. Partly sunny.10 mph73%30.11 "HgN/A
8:58 AM56 °FScattered clouds.5 mph64%30.09 "HgN/A
7:58 AM52 °FScattered clouds.5 mph74%30.09 "HgN/A
Weather by CustomWeather, © 2016

See weather overviewHow to use our weather pages